Hourly Data Report for December 06, 2002

TORONTO CITY
ONTARIO

43°40'00.000" N
79°24'00.000" W
112.50 m
6158355
71508
XTO

Download Data

Hourly Data (December 2002)
Hourly Data Report for December 6, 2002
TIME
LST
Temp Definition
°C
Dew Point Definition
°C
Rel Hum Definition
%
Precip. Amount Definition
mm

Wind Dir Definition
10's deg

Wind Spd Definition
km/h
Visibility Definition
km
Stn Press Definition
kPa
Hmdx Definition


Wind Chill Definition


Weather Definition


00:00 -3.3 -8.1 69   LegendMM LegendMM LegendMM 100.27     LegendNANA
01:00 -3.3 -8.1 69   LegendMM LegendMM LegendMM 100.23     LegendNANA
02:00 -3.1 -7.5 72   LegendMM LegendMM LegendMM 100.24     LegendNANA
03:00 -3.2 -7.3 73   LegendMM LegendMM LegendMM 100.26     LegendNANA
04:00 -3.1 -7.0 74   LegendMM LegendMM LegendMM 100.27     LegendNANA
05:00 -3.5 -7.0 77   LegendMM LegendMM LegendMM 100.29     LegendNANA
06:00 -3.6 -7.0 77   LegendMM LegendMM LegendMM 100.31     LegendNANA
07:00 -3.8 -7.2 77   LegendMM LegendMM LegendMM 100.33     LegendNANA
08:00 -3.9 -7.3 77   LegendMM LegendMM LegendMM 100.40     LegendNANA
09:00 -2.9 -7.1 73   LegendMM LegendMM LegendMM 100.44     LegendNANA
10:00 -1.9 -7.1 68   LegendMM LegendMM LegendMM 100.46     LegendNANA
11:00 -1.2 -7.6 62   LegendMM LegendMM LegendMM 100.49     LegendNANA
12:00 -0.4 -7.7 58   LegendMM LegendMM LegendMM 100.43     LegendNANA
13:00 -0.5 -9.2 52   LegendMM LegendMM LegendMM 100.46     LegendNANA
14:00 -1.3 -8.8 57   LegendMM LegendMM LegendMM 100.47     LegendNANA
15:00 -1.8 -9.7 55   LegendMM LegendMM LegendMM 100.46     LegendNANA
16:00 -2.1 -9.6 56   LegendMM LegendMM LegendMM 100.52     LegendNANA
17:00 -2.7 -9.9 58   LegendMM LegendMM LegendMM 100.50     LegendNANA
18:00 -2.9 -9.9 58   LegendMM LegendMM LegendMM 100.52     LegendNANA
19:00 -3.4 -9.7 62   LegendMM LegendMM LegendMM 100.48     LegendNANA
20:00 -3.5 -9.4 64   LegendMM LegendMM LegendMM 100.45     LegendNANA
21:00 -3.6 -8.9 67   LegendMM LegendMM LegendMM 100.35     LegendNANA
22:00 -3.9 -8.3 71   LegendMM LegendMM LegendMM 100.30     LegendNANA
23:00 -3.9 -7.9 74   LegendMM LegendMM LegendMM 100.29     LegendNANA

Notes on Data Quality.

Legend

  • E = Estimated
  • M = Missing
  • NA = Not Available*
  • [empty] = Indicates an unobserved value
Date modified: